Weather History for Rochelle, IL

Change the Weather History Date:

Thursday, May 15, 2014

  Actual Average (KRFD) Record (KRFD)
Temperature  
Mean Temperature 48 °F 60 °F  
Max Temperature 54 °F 72 °F 90 °F (1944)
Min Temperature 41 °F 48 °F 31 °F (1926)
Degree Days  
Heating Degree Days 18 7  
Month to date heating degree days 126  
Since 1 July heating degree days 6466  
Cooling Degree Days 0 1  
Month to date cooling degree days 13  
Year to date cooling degree days 21  
Moisture  
Dew Point 40 °F    
Average Humidity 78    
Maximum Humidity 93    
Minimum Humidity 47    
Precipitation  
Precipitation 0.14 in 0.12 in 3.61 in (1977)
Month to date precipitation 1.76  
Year to date precipitation 10.21  
Snow  
Snow 0.00 in 0.00 in T in (1944)
Month to date snowfall 0.0  
Since 1 July snowfall 36.7  
Snow Depth -    
Sea Level Pressure  
Sea Level Pressure 30.01 in    
Wind  
Wind Speed 9 mph (North)    
Max Wind Speed 16 mph    
Max Gust Speed 21 mph    
Visibility 10 miles    
Events Rain , Thunderstorm    
T = Trace of Precipitation, MM = Missing Value Source: NWS Daily Summary

Daily Weather History Graph

Daily Weather History Graph

Search for Another Location

Airport:

Trip Planner

Search our weather history database for the weather conditions in past years. The results will help you decide how hot, cold, wet, or windy it might be!

Date:

Astronomy

May. 15, 2014 Rise Set
Actual Time 5:36 AM CDT 8:09 PM CDT
Civil Twilight 5:04 AM CDT 8:41 PM CDT
Nautical Twilight 4:24 AM CDT 9:21 PM CDT
Astronomical Twilight 3:39 AM CDT 10:06 PM CDT
Moon 9:17 PM CDT (5/15) 6:23 AM CDT (5/15)
Length of Visible Light 15h 37m
Length of Day
14h 33m
Full, 99% of the Moon is Illuminated
May 15
Full
May 21
Last Quarter
May 28
New
Jun 5
First Quarter
Jun 12
Full

Hourly Weather History & Observations

Time (CDT) Temp. Windchill Dew Point Humidity Pressure Visibility Wind Dir Wind Speed Gust Speed Precip Events Conditions
12:15 AM 46.8 °F - 42.6 °F 85% 30.04 in 10.0 mi NNE 9.2 mph - N/A Rain Light Rain
12:35 AM 46.4 °F 41.9 °F 42.1 °F 85% 30.03 in 10.0 mi NE 9.2 mph - N/A Rain Rain
12:55 AM 45.9 °F 42.3 °F 42.1 °F 87% 30.02 in 10.0 mi NNE 6.9 mph - N/A   Light Drizzle
1:15 AM 45.7 °F 44.4 °F 41.7 °F 86% 30.01 in 10.0 mi North 3.5 mph - N/A Rain Light Rain
1:35 AM 45.7 °F 43.4 °F 41.7 °F 86% 30.00 in 10.0 mi North 4.6 mph - N/A   Overcast
1:55 AM 45.7 °F 42.0 °F 41.9 °F 87% 29.99 in 10.0 mi NNW 6.9 mph - N/A Rain Light Rain
2:15 AM 45.7 °F 41.5 °F 41.9 °F 87% 29.98 in 10.0 mi NNW 8.1 mph - N/A   Light Drizzle
2:55 AM 46.0 °F 41.9 °F 42.1 °F 86% 29.97 in 10.0 mi North 8.1 mph - N/A Rain Light Rain
3:15 AM 46.2 °F 41.7 °F 41.9 °F 85% 29.97 in 10.0 mi North 9.2 mph - 0.01 in   Drizzle
3:35 AM 46.4 °F 41.9 °F 41.9 °F 84% 29.96 in 10.0 mi North 9.2 mph - 0.01 in   Light Drizzle
3:55 AM 45.9 °F 41.2 °F 42.4 °F 88% 29.95 in 10.0 mi North 9.2 mph - 0.01 in Rain Light Rain
4:15 AM 45.7 °F 42.0 °F 42.6 °F 89% 29.96 in 10.0 mi North 6.9 mph - N/A   Drizzle
4:35 AM 45.5 °F 43.2 °F 43.2 °F 92% 29.96 in 10.0 mi North 4.6 mph - N/A   Light Drizzle
5:15 AM 45.7 °F 41.0 °F 42.8 °F 90% 29.96 in 10.0 mi North 9.2 mph - N/A   Light Drizzle
5:35 AM 45.5 °F 40.8 °F 41.9 °F 87% 29.98 in 10.0 mi North 9.2 mph - 0.01 in Rain Light Rain
5:55 AM 44.6 °F 38.4 °F 41.0 °F 87% 29.98 in 10.0 mi North 12.7 mph - 0.02 in Rain Rain
6:15 AM 43.7 °F 36.3 °F 40.1 °F 87% 29.99 in 10.0 mi North 16.1 mph 20.7 mph N/A Rain Light Rain
6:35 AM 43.0 °F 36.4 °F 40.1 °F 90% 29.99 in 10.0 mi North 12.7 mph 16.1 mph N/A Rain Light Rain
6:55 AM 43.0 °F 36.4 °F 40.6 °F 91% 30.00 in 10.0 mi North 12.7 mph 18.4 mph N/A Rain Light Rain
7:15 AM 42.8 °F 35.8 °F 40.5 °F 91% 30.00 in 7.0 mi North 13.8 mph - N/A Rain Light Rain
7:35 AM 42.3 °F 35.9 °F 39.7 °F 91% 30.01 in 10.0 mi NNE 11.5 mph - 0.01 in Rain Rain
7:55 AM 42.3 °F 36.3 °F 40.3 °F 93% 30.01 in 10.0 mi North 10.4 mph - 0.02 in Rain Rain
8:15 AM 41.9 °F 35.4 °F 38.5 °F 88% 30.01 in 10.0 mi North 11.5 mph - 0.01 in Rain Light Rain
8:35 AM 42.1 °F 35.2 °F 39.2 °F 90% 30.02 in 10.0 mi NNE 12.7 mph - 0.01 in Rain Light Rain
8:55 AM 42.1 °F 35.7 °F 39.2 °F 90% 30.02 in 10.0 mi NNE 11.5 mph - 0.02 in Rain Light Rain
9:15 AM 42.1 °F 34.9 °F 39.2 °F 90% 30.02 in 10.0 mi NNE 13.8 mph - N/A Rain Light Rain
9:35 AM 43.2 °F 37.4 °F 39.9 °F 88% 30.01 in 10.0 mi NNE 10.4 mph - N/A   Overcast
9:55 AM 44.2 °F 39.2 °F 39.9 °F 85% 30.01 in 10.0 mi NNE 9.2 mph - N/A   Overcast
10:15 AM 45.0 °F 37.9 °F 39.4 °F 81% 30.01 in 10.0 mi NE 16.1 mph - N/A   Overcast
10:35 AM 46.2 °F 40.1 °F 40.6 °F 81% 30.02 in 10.0 mi North 13.8 mph - N/A   Overcast
10:55 AM 46.2 °F 41.7 °F 40.1 °F 79% 30.02 in 10.0 mi North 9.2 mph 17.3 mph N/A   Overcast
11:15 AM 46.4 °F 41.9 °F 39.9 °F 78% 30.02 in 10.0 mi North 9.2 mph - N/A   Overcast
11:35 AM 45.7 °F 40.2 °F 39.6 °F 79% 30.03 in 10.0 mi NNW 11.5 mph - N/A   Overcast
12:35 PM 48.2 °F - 40.3 °F 74% 30.03 in 10.0 mi North 9.2 mph - N/A   Overcast
12:55 PM 48.2 °F - 40.1 °F 74% 30.02 in 10.0 mi North 8.1 mph - N/A Thunderstorm Overcast
2:15 PM 51.3 °F - 39.2 °F 63% 30.02 in 10.0 mi NE 4.6 mph - N/A   Mostly Cloudy
2:35 PM 51.6 °F - 39.2 °F 63% 30.01 in 10.0 mi NNW 9.2 mph - N/A   Mostly Cloudy
2:55 PM 52.9 °F - 39.0 °F 59% 30.01 in 10.0 mi North 9.2 mph - N/A Thunderstorm Thunderstorm
3:15 PM 52.9 °F - 38.1 °F 57% 30.01 in 10.0 mi North 9.2 mph - N/A   Mostly Cloudy
3:35 PM 52.2 °F - 37.9 °F 58% 30.00 in 10.0 mi North 9.2 mph - N/A   Mostly Cloudy
3:55 PM 53.1 °F - 37.6 °F 56% 30.00 in 10.0 mi North 6.9 mph - N/A   Scattered Clouds
4:15 PM 54.0 °F - 36.5 °F 52% 30.00 in 10.0 mi North 4.6 mph - N/A   Clear
4:35 PM 54.5 °F - 36.1 °F 50% 30.00 in 10.0 mi North 9.2 mph - N/A   Scattered Clouds
4:55 PM 53.2 °F - 36.1 °F 52% 30.00 in 10.0 mi NNE 5.8 mph - N/A   Overcast
5:15 PM 52.9 °F - 34.5 °F 50% 30.00 in 10.0 mi Calm Calm - N/A   Overcast
5:35 PM 53.1 °F - 33.3 °F 47% 30.01 in 10.0 mi Calm Calm - N/A   Overcast
5:55 PM 53.1 °F - 34.2 °F 49% 30.00 in 10.0 mi Calm Calm - N/A   Overcast
6:15 PM 52.9 °F - 35.4 °F 52% 30.00 in 10.0 mi Calm Calm - N/A   Overcast
6:35 PM 53.4 °F - 36.3 °F 52% 30.01 in 10.0 mi SSE 3.5 mph - N/A   Overcast
6:55 PM 52.5 °F - 36.1 °F 54% 30.01 in 10.0 mi SE 3.5 mph - N/A   Overcast
7:15 PM 52.2 °F - 36.3 °F 55% 30.01 in 10.0 mi SSE 3.5 mph - N/A   Overcast
7:35 PM 51.8 °F - 39.0 °F 62% 30.02 in 10.0 mi SSE 3.5 mph - N/A   Overcast
7:55 PM 48.6 °F - 43.0 °F 81% 30.02 in 10.0 mi West 15.0 mph - N/A   Overcast
8:15 PM 47.7 °F - 42.8 °F 83% 30.03 in 10.0 mi WNW 10.4 mph - N/A   Drizzle
8:35 PM 46.8 °F - 43.2 °F 87% 30.03 in 7.0 mi NW 9.2 mph - N/A Rain Light Rain
8:55 PM 46.4 °F 41.9 °F 43.2 °F 88% 30.03 in 10.0 mi NW 9.2 mph - N/A Rain Light Rain
9:15 PM 46.0 °F 41.4 °F 42.4 °F 87% 30.02 in 10.0 mi WNW 9.2 mph - N/A   Overcast
9:35 PM 46.2 °F 42.2 °F 42.6 °F 87% - 10.0 mi West 8.1 mph - N/A   Overcast
9:55 PM 46.0 °F 43.1 °F 43.2 °F 90% 30.03 in 10.0 mi WSW 5.8 mph - N/A   Light Drizzle
10:15 PM 45.7 °F 42.0 °F 43.2 °F 91% 30.03 in 10.0 mi WSW 6.9 mph - 0.01 in Rain Rain
10:35 PM 45.9 °F 43.6 °F 43.3 °F 91% 30.04 in 10.0 mi NNE 4.6 mph - 0.01 in Rain Light Rain
10:55 PM 46.0 °F 41.0 °F 42.8 °F 88% 30.04 in 10.0 mi East 10.4 mph - 0.02 in Rain Light Rain
11:15 PM 44.6 °F 38.8 °F 42.4 °F 92% 30.04 in 5.0 mi ESE 11.5 mph - 0.02 in Rain Light Rain
11:35 PM 44.4 °F 39.0 °F 42.3 °F 92% 30.03 in 5.0 mi SSE 10.4 mph - 0.04 in Rain Rain
11:55 PM 43.9 °F 37.9 °F 41.2 °F 90% 30.03 in 7.0 mi SE 11.5 mph - 0.05 in Rain Light Rain